MIDAS 5 DEB, 274

Orbit data source: Space-Track

MIDAS 5 DEB, 274 is space debris in LEO originally from a launch on Mon, 09 Apr 1962 UTC launched from the Air Force Western Test Range (AFWTR). Debris objects in space refer to the collection of defunct objects orbiting the Earth. Examples of debris include non-operational satellites, rocket bodies, and fragments generated from explosions, collisions, or faulty payload assembly.

Loading next visibility...
Identifier
274, 1962-010D
Orbit
LEO
Country
Flag of USUS
Related business
Manufacturer
Unknown
Mission
Spacecraft
Bus & Motor
Unknown
Mass
~10 kg wet, ~10 kg dry
Launch date (UTC)
1962-04-09 (64 years ago)
Launch vehicle
Unknown
Launch site
Air Force Western Test Range (AFWTR)
Object type
Payload
Rocket body
Debris
Shape & HBR
Unknown shape, 0.5 m
Radar Cross Section
Medium (>0.1 m² and <1 m²)

Expand to show TLE details & history
Last TLE update: 22 hours ago

TLE from 22 hours ago
0 MIDAS 5 DEB
1 00274U 62010D   26037.27521669  .00000006  00000-0  58300-3 0  9993
2 00274  86.6783 352.5476 0349977 329.4437  28.6489  9.39376913188493
Epoch: 2026-02-06T06:36Z
TLE epoch observation values (Epoch: 2026-02-06T06:36:18.722Z)
Latitude
-0.00006°
Longitude
117.05416°
Altitude
2,823.545 km
Speed
6.682 km/s
True Right ascension
23h 30m 11s
True Declination
0° 00' 00"
Sunlit
Object was in daylight at epoch
Visualization orbit readout
Latitude
Unknown
Longitude
Unknown
Altitude
Unknown
Speed
Unknown
Apparent Right ascension
Unknown
Apparent Declination
Unknown
Sunlit
N/A
Visualization observer readout
Local Sidereal Time
06:51:34
Azimuth
Unknown
Elevation
Unknown
Doppler factor
Unknown
Orbital elements
Apogee altitude
3,439.558 km
Perigee altitude
2,775.602 km
Semi-major axis
9,485.717 km
Eccentricity
0.035
Inclination
86.6783°
RAAN
352.5476°
Arg. of periapsis
329.4437°
True anomaly
30.6479°
Mean anomaly
28.6489°
Eccentric anomaly
29.6406°
Mean motion
2.3493 °/min
Orbital period
153.24 mins
BSTAR
0.000583
Loading maneuver chart data...
Computing Atmospheric mass density...
Loading historical data...
Loading historical data...
Loading historical data...
Loading historical data...
Loading historical data...
Loading historical data...
Loading historical data...

Documentation

Showing up to 5 results
|